Wetterstats.de || Aktuelle Messwerte / Archiv || Stationsstandorte || Wetterblog || Wissenswertes


Monatsübersicht für März 2019 Diagramm
 
Wetter Information zur Wetteranzeige
Zeitraffer
Tageslänge (hh:mm)
Höchsttemperatur in °C
Uhrzeit
Tiefsttemperatur in °C
Uhrzeit
Luftfeuchte (max., in %)
Uhrzeit
Luftfeuchte (min., in %)
Uhrzeit
Luftdruck (max., in hPa)
Uhrzeit
Luftdruck (min., in hPa)
Uhrzeit
Luftdruck (Ø, in hPa)
Regenrate (max, mm/h)
Uhrzeit
Niederschlag in mm
Niederschlagsdauer (hh:mm)
Verdunstung in mm
Solar in W/m² (Ø)
Solar in W/m² (max.)
UV-Index (max.)
Sonnenscheindauer (hh:mm)
Windrichtung (Ø)
Windstärke (Ø in km/h)
Windstärke (Ø in bft)
Windböe (max., in km/h)
Uhrzeit
Windböe (max., in bft)
Uhrzeit
Taupunkt (max., in °C)
Uhrzeit
Taupunkt (min., in °C)
Uhrzeit
Windchill (min., in °C)
Uhrzeit
Gewitterindex (max.)
Uhrzeit
Waldbrandindex (max.)
Uhrzeit
Graslandfeuerindex (max.)
Uhrzeit
Staubsturm-Index (max.)
Uhrzeit
01
Zeitraffer
8.1
00:00 Uhr
5.6
23:30 Uhr

77
11:20 Uhr
65
16:55 Uhr
1015.5
23:05 Uhr

1008.5
06:05 Uhr
1011.2
0,000
00:00 Uhr
0,000
00:00:00
0.000
0
0
00:00 Uhr
0.0
00:00 Uhr

00:00:00
0,7
0
15,5
13:50 Uhr

3
3.2
00:00 Uhr
0.1
22:45 Uhr
5.6
23:30 Uhr
0
00:00 Uhr
0.0
00:00 Uhr
0.0
00:00 Uhr
0.0
00:00 Uhr
02
Zeitraffer
7.8
14:40 Uhr
5.2
03:05 Uhr

74
08:30 Uhr
60
15:00 Uhr
1015.8
01:40 Uhr

1010.4
23:50 Uhr
1014.0
0,000
00:00 Uhr
0,000
00:00:00
0.000
0
0
00:00 Uhr
0.0
00:00 Uhr

00:00:00
0,3
0
6,5
11:45 Uhr

1
1.5
23:45 Uhr
-0.2
01:45 Uhr
5.2
03:05 Uhr
0
00:00 Uhr
0.0
00:00 Uhr
0.0
00:00 Uhr
0.0
00:00 Uhr
03
Zeitraffer
10.8
15:35 Uhr
6.3
00:45 Uhr

88
18:10 Uhr
71
00:00 Uhr
1010.6
00:05 Uhr

999.7
23:55 Uhr
1005.0
3,600
03:50 Uhr
1,500
00:00:00
0.000
0
0
00:00 Uhr
0.0
00:00 Uhr

00:00:00
1,2
0
11,2
20:05 Uhr

2
8.5
18:10 Uhr
1.5
00:00 Uhr
6.3
00:30 Uhr
0
00:00 Uhr
0.0
00:00 Uhr
0.0
00:00 Uhr
0.0
00:00 Uhr
04
Zeitraffer
13.1
12:25 Uhr
7.9
23:50 Uhr

84
00:00 Uhr
59
16:10 Uhr
999.7
00:00 Uhr

987.1
17:00 Uhr
992.5
3,600
00:10 Uhr
0,600
00:00:00
0.000
0
0
00:00 Uhr
0.0
00:00 Uhr

00:00:00
1,8
0
22,0
07:40 Uhr

4
7.8
00:00 Uhr
2.3
23:55 Uhr
7.9
23:50 Uhr
0
00:00 Uhr
0.0
00:00 Uhr
0.0
00:00 Uhr
0.0
00:00 Uhr
05
Zeitraffer
10.6
11:50 Uhr
5.9
23:50 Uhr

77
21:40 Uhr
63
15:40 Uhr
1009.5
23:45 Uhr

995.0
00:00 Uhr
1000.9
0,000
00:00 Uhr
0,000
00:00:00
0.000
0
0
00:00 Uhr
0.0
00:00 Uhr

00:00:00
0,9
0
13,3
08:50 Uhr

3
5.2
11:30 Uhr
1.9
03:10 Uhr
5.9
23:50 Uhr
0
00:00 Uhr
0.0
00:00 Uhr
0.0
00:00 Uhr
0.0
00:00 Uhr
06
Zeitraffer
11.6
15:05 Uhr
4.2
06:45 Uhr

79
07:10 Uhr
57
13:40 Uhr
1011.2
07:05 Uhr

999.5
23:55 Uhr
1007.1
0,000
00:00 Uhr
0,000
00:00:00
0.000
0
0
00:00 Uhr
0.0
00:00 Uhr

00:00:00
3,0
1
28,8
16:40 Uhr

4
4.9
11:35 Uhr
0.7
05:45 Uhr
4.2
06:45 Uhr
0
00:00 Uhr
0.0
00:00 Uhr
0.0
00:00 Uhr
0.0
00:00 Uhr
07
Zeitraffer
14.2
14:20 Uhr
8.8
05:45 Uhr

82
06:50 Uhr
61
14:30 Uhr
999.7
23:20 Uhr

993.6
12:25 Uhr
996.4
3,600
05:30 Uhr
0,300
00:00:00
0.000
0
0
00:00 Uhr
0.0
00:00 Uhr

00:00:00
2,2
1
22,0
09:30 Uhr

4
7.6
16:45 Uhr
3.7
00:00 Uhr
8.5
06:05 Uhr
0
00:00 Uhr
0.0
00:00 Uhr
0.0
00:00 Uhr
0.0
00:00 Uhr
08
Zeitraffer
10.4
11:55 Uhr
7.3
22:50 Uhr

75
12:25 Uhr
62
17:10 Uhr
1012.6
21:50 Uhr

997.2
06:15 Uhr
1004.5
3,600
12:00 Uhr
0,300
00:00:00
0.000
0
0
00:00 Uhr
0.0
00:00 Uhr

00:00:00
1,7
0
15,5
02:30 Uhr

3
5.6
11:55 Uhr
1.2
21:30 Uhr
7.3
22:50 Uhr
0
00:00 Uhr
0.0
00:00 Uhr
0.0
00:00 Uhr
0.0
00:00 Uhr
09
Zeitraffer
11.8
14:40 Uhr
5.9
23:45 Uhr

81
08:20 Uhr
58
14:20 Uhr
1011.8
00:00 Uhr

1000.0
20:10 Uhr
1004.7
3,600
19:30 Uhr
0,300
00:00:00
0.026
0
0
00:00 Uhr
0.0
00:00 Uhr

00:00:00
1,4
0
17,6
06:30 Uhr

3
5.8
10:25 Uhr
1.2
23:55 Uhr
5.9
23:45 Uhr
0
00:00 Uhr
0.0
00:00 Uhr
0.0
00:00 Uhr
0.0
00:00 Uhr
10
Zeitraffer
11:34
9.5
11:30 Uhr
2.5
21:10 Uhr

90
19:00 Uhr
62
11:05 Uhr
1007.3
01:45 Uhr

995.2
18:20 Uhr
1001.8
4,800
18:10 Uhr
5,400
0.483
75
169
09:35 Uhr
0.5
10:50 Uhr

00:20:00
0,1
0
9,7
18:25 Uhr

2
3.9
18:05 Uhr
0.6
01:50 Uhr
2.5
21:10 Uhr
0
00:00 Uhr
0.0
00:00 Uhr
0.0
00:00 Uhr
0.0
00:00 Uhr
11
Zeitraffer
11:38
6.4
17:00 Uhr
2.5
23:15 Uhr

90
00:00 Uhr
72
16:35 Uhr
1016.7
23:55 Uhr

1004.7
00:00 Uhr
1009.0
2,400
19:30 Uhr
0,200
0.254
57
159
10:50 Uhr
0.0
00:00 Uhr

00:00:00
0,0
0
8,0
19:20 Uhr

2
2.7
14:50 Uhr
0.6
22:55 Uhr
2.5
23:15 Uhr
0
00:00 Uhr
0.0
00:00 Uhr
0.0
00:00 Uhr
0.0
00:00 Uhr
12
Zeitraffer
11:41
9.7
15:00 Uhr
2.3
00:20 Uhr

88
00:40 Uhr
52
14:25 Uhr
1019.7
06:55 Uhr

1000.8
23:55 Uhr
1014.5
0,000
00:00 Uhr
0,000
0.635
95
620
11:55 Uhr
1.1
11:35 Uhr

00:30:00
0,5
0
19,3
20:35 Uhr

3
3.9
10:45 Uhr
-1.0
23:40 Uhr
2.3
00:20 Uhr
0
00:00 Uhr
0.0
00:00 Uhr
0.0
00:00 Uhr
0.0
00:00 Uhr
13
Zeitraffer
11:46
11.4
12:00 Uhr
6.1
06:30 Uhr

79
23:35 Uhr
47
12:00 Uhr
1002.9
08:15 Uhr

997.8
22:20 Uhr
1000.1
0,000
00:00 Uhr
0,000
0.914
111
570
12:00 Uhr
0.9
11:20 Uhr

01:10:00
0,4
0
19,3
00:55 Uhr

3
3.6
22:55 Uhr
-2.0
00:50 Uhr
6.1
06:30 Uhr
0
00:00 Uhr
0.0
00:00 Uhr
0.0
00:00 Uhr
0.0
00:00 Uhr
14
Zeitraffer
11:50
9.7
13:00 Uhr
5.6
20:00 Uhr

89
23:10 Uhr
63
13:00 Uhr
1001.3
08:00 Uhr

989.8
20:35 Uhr
996.3
2,400
18:35 Uhr
0,600
0.381
58
232
11:05 Uhr
0.6
11:00 Uhr

00:00:00
0,2
0
9,7
15:35 Uhr

2
4.8
23:45 Uhr
2.0
04:40 Uhr
5.6
20:00 Uhr
0
00:00 Uhr
0.0
00:00 Uhr
0.0
00:00 Uhr
0.0
00:00 Uhr
15
Zeitraffer
11:54
10.8
12:50 Uhr
6.4
02:20 Uhr

88
00:00 Uhr
60
22:15 Uhr
999.9
09:55 Uhr

993.2
17:15 Uhr
996.4
2,400
15:35 Uhr
0,200
0.432
67
199
11:25 Uhr
0.8
12:20 Uhr

00:00:00
0,4
0
8,0
20:55 Uhr

2
6.9
17:30 Uhr
0.6
22:15 Uhr
6.4
02:20 Uhr
0
00:00 Uhr
0.0
00:00 Uhr
0.0
00:00 Uhr
0.0
00:00 Uhr


 
Wetter Information zur Wetteranzeige
Zeitraffer
Tageslänge (hh:mm)
Höchsttemperatur in °C
Uhrzeit
Tiefsttemperatur in °C
Uhrzeit
Luftfeuchte (max., in %)
Uhrzeit
Luftfeuchte (min., in %)
Uhrzeit
Luftdruck (max., in hPa)
Uhrzeit
Luftdruck (min., in hPa)
Uhrzeit
Luftdruck (Ø, in hPa)
Regenrate (max, mm/h)
Uhrzeit
Niederschlag in mm
Niederschlagsdauer (hh:mm)
Verdunstung in mm
Solar in W/m² (Ø)
Solar in W/m² (max.)
UV-Index (max.)
Sonnenscheindauer (hh:mm)
Windrichtung (Ø)
Windstärke (Ø in km/h)
Windstärke (Ø in bft)
Windböe (max., in km/h)
Uhrzeit
Windböe (max., in bft)
Uhrzeit
Taupunkt (max., in °C)
Uhrzeit
Taupunkt (min., in °C)
Uhrzeit
Windchill (min., in °C)
Uhrzeit
Gewitterindex (max.)
Uhrzeit
Waldbrandindex (max.)
Uhrzeit
Graslandfeuerindex (max.)
Uhrzeit
Staubsturm-Index (max.)
Uhrzeit
16
Zeitraffer
11:58
10.6
11:30 Uhr
6.1
05:00 Uhr

90
20:05 Uhr
57
12:05 Uhr
1005.8
11:10 Uhr

997.7
00:05 Uhr
1002.9
2,400
17:10 Uhr
0,400
0.559
82
220
08:10 Uhr
0.8
11:10 Uhr

00:35:00
0,4
0
9,7
16:25 Uhr

2
7.3
22:45 Uhr
0.3
01:20 Uhr
6.1
05:00 Uhr
0
00:00 Uhr
0.0
00:00 Uhr
0.0
00:00 Uhr
0.0
00:00 Uhr
17
Zeitraffer
12:02
15.6
10:55 Uhr
6.1
23:45 Uhr

86
00:00 Uhr
54
10:55 Uhr
1005.4
23:45 Uhr

996.9
10:45 Uhr
999.6
2,400
11:50 Uhr
0,200
0.838
98
473
10:55 Uhr
1.1
10:40 Uhr

01:30:00
0,3
0
9,7
02:25 Uhr

2
6.9
00:00 Uhr
2.0
23:45 Uhr
6.1
23:45 Uhr
0
00:00 Uhr
0.0
00:00 Uhr
0.0
00:00 Uhr
0.0
00:00 Uhr
18
Zeitraffer
12:06
9.4
13:20 Uhr
4.6
04:25 Uhr

80
15:10 Uhr
60
13:30 Uhr
1017.5
23:55 Uhr

1005.3
00:00 Uhr
1009.9
2,400
22:25 Uhr
0,200
0.610
61
278
12:15 Uhr
1.2
12:15 Uhr

00:00:00
0,3
0
9,7
11:30 Uhr

2
4.3
13:55 Uhr
0.4
05:10 Uhr
4.6
04:25 Uhr
0
00:00 Uhr
0.0
00:00 Uhr
0.0
00:00 Uhr
0.0
00:00 Uhr
19
Zeitraffer
12:11
11.6
11:55 Uhr
3.9
04:20 Uhr

80
04:55 Uhr
46
13:00 Uhr
1029.6
23:45 Uhr

1017.5
00:00 Uhr
1023.6
0,000
00:00 Uhr
0,000
1.041
145
630
11:30 Uhr
1.8
12:10 Uhr

02:20:00
0,2
0
6,4
09:15 Uhr

1
2.2
09:50 Uhr
-1.3
13:55 Uhr
3.9
04:20 Uhr
0
00:00 Uhr
0.0
00:00 Uhr
0.0
00:00 Uhr
0.0
00:00 Uhr
20
Zeitraffer
12:15
15.4
11:55 Uhr
1.4
05:40 Uhr

80
06:40 Uhr
45
11:00 Uhr
1032.5
23:00 Uhr

1029.6
00:00 Uhr
1031.1
0,000
00:00 Uhr
0,000
1.295
184
540
12:05 Uhr
1.8
11:30 Uhr

05:05:00
0,1
0
6,4
15:10 Uhr

1
6.7
23:50 Uhr
-1.9
05:00 Uhr
1.4
05:40 Uhr
0
00:00 Uhr
0.0
00:00 Uhr
0.0
00:00 Uhr
0.0
00:00 Uhr
21
Zeitraffer
12:18
13.4
15:45 Uhr
8.3
23:55 Uhr

82
22:30 Uhr
71
15:45 Uhr
1033.4
10:05 Uhr

1030.9
17:40 Uhr
1032.1
0,000
00:00 Uhr
0,000
0.533
48
100
11:20 Uhr
0.6
11:20 Uhr

00:00:00
0,0
0
3,2
02:15 Uhr

1
8.4
15:40 Uhr
5.4
23:40 Uhr
8.3
23:55 Uhr
0
00:00 Uhr
0.0
00:00 Uhr
0.0
00:00 Uhr
0.0
00:00 Uhr
22
Zeitraffer
12:23
11.0
13:20 Uhr
8.1
00:25 Uhr

87
23:55 Uhr
78
16:00 Uhr
1033.1
10:00 Uhr

1027.3
23:50 Uhr
1031.0
0,000
00:00 Uhr
0,000
0.356
46
81
12:45 Uhr
0.0
00:00 Uhr

00:00:00
0,8
0
16,1
17:15 Uhr

3
7.6
13:05 Uhr
5.2
00:25 Uhr
8.1
00:25 Uhr
0
00:00 Uhr
0.0
00:00 Uhr
0.0
00:00 Uhr
0.0
00:00 Uhr
23
Zeitraffer
12:27
18.4
11:35 Uhr
6.4
06:30 Uhr

92
08:10 Uhr
58
11:35 Uhr
1028.2
22:30 Uhr

1024.1
07:00 Uhr
1025.7
0,000
00:00 Uhr
0,000
1.245
182
512
11:35 Uhr
1.8
11:35 Uhr

04:35:00
0,2
0
9,7
00:25 Uhr

2
10.4
12:05 Uhr
4.7
06:40 Uhr
6.4
06:30 Uhr
0
00:00 Uhr
0.0
00:00 Uhr
0.0
00:00 Uhr
0.0
00:00 Uhr
24
Zeitraffer
12:31
13.9
11:30 Uhr
5.5
06:40 Uhr

78
06:45 Uhr
37
14:40 Uhr
1028.2
01:10 Uhr

1017.3
23:55 Uhr
1023.7
0,000
00:00 Uhr
0,000
1.321
174
595
11:25 Uhr
1.6
11:25 Uhr

04:00:00
0,1
0
11,3
09:00 Uhr

2
6.4
00:10 Uhr
-1.3
14:45 Uhr
5.5
06:40 Uhr
0
00:00 Uhr
0.0
00:00 Uhr
0.0
00:00 Uhr
0.0
00:00 Uhr
25
Zeitraffer
12:35
9.8
14:25 Uhr
4.7
08:40 Uhr

82
09:20 Uhr
59
14:20 Uhr
1021.6
23:55 Uhr

1010.4
07:15 Uhr
1014.4
7,200
15:00 Uhr
0,600
0.610
61
357
12:05 Uhr
0.7
11:55 Uhr

00:05:00
0,2
0
16,1
14:45 Uhr

3
3.8
15:30 Uhr
0.0
04:40 Uhr
4.7
08:40 Uhr
0
00:00 Uhr
0.0
00:00 Uhr
0.0
00:00 Uhr
0.0
00:00 Uhr
26
Zeitraffer
12:39
8.7
14:15 Uhr
3.1
03:30 Uhr

85
06:35 Uhr
60
16:40 Uhr
1026.1
23:45 Uhr

1020.9
14:15 Uhr
1022.5
0,000
00:00 Uhr
0,000
0.610
86
379
08:40 Uhr
1.0
12:05 Uhr

00:15:00
0,3
0
8,0
09:55 Uhr

2
4.9
13:45 Uhr
-0.1
03:15 Uhr
3.1
03:30 Uhr
0
00:00 Uhr
0.0
00:00 Uhr
0.0
00:00 Uhr
0.0
00:00 Uhr
27
Zeitraffer
12:43
10.6
17:45 Uhr
4.8
03:30 Uhr

85
06:50 Uhr
70
13:50 Uhr
1029.1
23:35 Uhr

1025.9
00:00 Uhr
1027.8
0,000
00:00 Uhr
0,000
0.508
62
194
10:20 Uhr
0.7
11:45 Uhr

00:00:00
0,1
0
3,2
09:45 Uhr

1
7.0
15:35 Uhr
1.4
00:05 Uhr
4.8
03:30 Uhr
0
00:00 Uhr
0.0
00:00 Uhr
0.0
00:00 Uhr
0.0
00:00 Uhr
28
Zeitraffer
12:48
11.3
16:10 Uhr
8.8
05:30 Uhr

89
07:20 Uhr
83
13:10 Uhr
1033.1
21:00 Uhr

1028.8
01:35 Uhr
1031.0
2,400
00:40 Uhr
0,400
0.254
42
171
11:25 Uhr
0.8
11:15 Uhr

00:00:00
0,0
0
8,0
13:20 Uhr

2
8.7
16:10 Uhr
6.7
00:35 Uhr
8.8
05:30 Uhr
0
00:00 Uhr
0.0
00:00 Uhr
0.0
00:00 Uhr
0.0
00:00 Uhr
29
Zeitraffer
12:51
13.7
15:45 Uhr
9.3
23:50 Uhr

88
05:05 Uhr
65
16:40 Uhr
1033.1
00:05 Uhr

1026.3
23:55 Uhr
1030.5
0,000
00:00 Uhr
0,000
0.533
62
140
12:00 Uhr
0.7
11:50 Uhr

00:00:00
0,0
0
3,2
21:20 Uhr

1
9.6
10:20 Uhr
5.1
23:50 Uhr
9.3
23:50 Uhr
0
00:00 Uhr
0.0
00:00 Uhr
0.0
00:00 Uhr
0.0
00:00 Uhr
30
Zeitraffer
12:56
18.6
11:45 Uhr
6.3
06:10 Uhr

84
07:30 Uhr
44
14:55 Uhr
1026.4
00:00 Uhr

1017.2
22:40 Uhr
1021.3
0,000
00:00 Uhr
0,000
1.550
186
611
11:55 Uhr
2.0
11:55 Uhr

05:20:00
0,1
0
6,4
10:35 Uhr

1
8.4
12:50 Uhr
3.2
06:00 Uhr
6.3
06:10 Uhr
0
00:00 Uhr
0.0
00:00 Uhr
0.0
00:00 Uhr
0.0
00:00 Uhr
31
Zeitraffer
13:00
13.2
15:25 Uhr
5.2
23:55 Uhr

76
08:25 Uhr
37
17:10 Uhr
1026.2
23:50 Uhr

1017.0
00:30 Uhr
1021.3
0,000
00:00 Uhr
0,000
0.914
87
432
12:15 Uhr
1.6
12:10 Uhr

01:15:00
0,4
0
12,9
16:10 Uhr

2
6.1
00:00 Uhr
-4.3
23:55 Uhr
5.2
23:55 Uhr
0
00:00 Uhr
0.0
00:00 Uhr
0.0
00:00 Uhr
0.0
00:00 Uhr

Seiten-Historie || Downloads || Impressum / Datenschutz